Regional Weather Roundup
Issued by NWS

Home | Current Version | Previous Version | Text Only | Print | Product List | Glossary Off
Versions: 1 2 3 4 5 6 7 8 9 10 11 12 13 14 15 16 17 18 19 20 21 22 23 24 25 26 27 28 29 30 31 32 33 34 35 36 37 38 39 40 41 42 43 44 45 46 47 48 49 50

000
ASUS44 KOUN 050710
RWROK

WEATHER ROUNDUP FOR OKLAHOMA
NATIONAL WEATHER SERVICE NORMAN OK
200 AM CDT THU MAY 05 2016

NOTE: "FAIR" INDICATES FEW OR NO CLOUDS BELOW 12,000 FEET WITH NO
      SIGNIFICANT WEATHER AND/OR OBSTRUCTIONS TO VISIBILITY.

OKZ001>007-009>012-014-015-017-050800-
NORTHWEST OKLAHOMA AND THE PANHANDLE

CITY           SKY/WX    TMP DP  RH WIND       PRES   REMARKS
GAGE           CLEAR     51  45  79 W3        30.10R
GUYMON         CLEAR     56  41  57 CALM      30.12R
ENID/WOODRING  CLEAR     48  43  81 N6        30.04S
$$

OKZ016-021>023-033>039-044-045-050800-
SOUTHWEST OKLAHOMA

CITY           SKY/WX    TMP DP  RH WIND       PRES   REMARKS
LAWTON/REGL    CLEAR     54  51  90 CALM      30.05S
LAWTON/FT SILL CLEAR     56  50  79 N8        30.04R
FREDERICK      CLEAR     59  51  75 NE7       30.03S
CLINTON        CLEAR     52  46  80 CALM      30.10R
HOBART         CLEAR     56  46  69 NE3       30.07S
ALTUS AFB      CLEAR     55  48  76 NE7       30.05F
$$

OKZ018>020-024>031-050800-
CENTRAL OKLAHOMA

CITY           SKY/WX    TMP DP  RH WIND       PRES   REMARKS
OKLAHOMA CITY  CLEAR     59  40  49 N7        30.05S
OKC/WILEY POST CLEAR     59  42  53 N5        30.06R
OKC/TINKER AFB CLEAR     57  39  51 N5        30.04S
STILLWATER     CLEAR     46  43  89 SW3       30.04S
GUTHRIE        CLEAR     51  42  71 CALM      30.05S
$$

OKZ008-013-054>072-050800-
NORTHEAST OKLAHOMA

CITY           SKY/WX    TMP DP  RH WIND       PRES   REMARKS
TULSA          CLEAR     56  44  64 NW3       30.01S
TULSA/JONES    CLEAR     49  46  90 CALM      30.03S
PONCA CITY     CLEAR     46  42  86 CALM      30.04S
BARTLESVILLE   CLEAR     44  41  89 CALM      30.04S
MUSKOGEE       CLEAR     53  44  71 N3        30.03S
$$

OKZ032-040>043-046>053-073>077-050800-
SOUTH CENTRAL/SOUTHEAST OKLAHOMA

CITY           SKY/WX    TMP DP  RH WIND       PRES   REMARKS
ARDMORE/DWNTWN CLEAR     54  45  71 CALM      30.03S
MCALESTER      PTCLDY    48  44  86 CALM      30.02S
$$





USA.gov is the U.S. government's official web portal to all federal, state and local government web resources and services.